Погода Пономарёво

Погода Пономарёво : погода сейчас, прогноз погоды и архив. Всё, что Вы хотите узнать о погоде Пономарёво!

Поиск расширенной информации на нашем сайте:

Другие новости

Новости СМИ2

Главная страница сайта

Новости сайта

03.07.2017

Напоминаем, что на нашем специализированном сайте Метеоцентр.Азия вы можете получить высокодетализированные автоматические прогнозы погоды по пунктам России, СНГ и мира в авиационном формате (включающие направление и скорость ветра, видимость, явления погоды, количество и форму облачности, нижнюю и верхнюю границу облачности).


Погода Пономарёво - сегодня

Время (UTC), дата Ветер
(°,м/с) 
Видим.   Явления Облачность Т
(°С)
Тd
(°С)
f(%) Тe
(°С)
Pmin
(гПа)
dP
(гПа)
Po
(мм)
O2
(г/м3)
Тmin Tmax R s Состояние
почвы
15 17.02.18 тихо ()   н/о    ясно 
-19.8 -21 90 -20  1043.3  -0.5  737  322           
18 17.02.18 тихо ()   н/о    ясно 
-22 -23.3 89 -22  1043.8  737  325           
21 17.02.18 тихо ()   н/о    ясно 
-22.6 -23.8 90 -23  1044.1  0.1  737  326           
00 18.02.18 тихо ()   н/о    9/0 верхняя 
[Ci fib]
-23.6 -24.9 89 -24  1045.1  0.6  738  327  -23.6      76  равномерный
сухой снег
100% 
03 18.02.18 тихо ()   20000 м    9/0 средняя, верхняя 
[Ac trans|Ci fib]
-20.4 -21.6 90 -20  1044  -0.1  738  323           
06 18.02.18 170 (Ю) 20000 м    9/0 средняя 
[As trans]
-13.2 -17.5 70 -13  1041.3  -0.9  737  313           
09 18.02.18 тихо ()   20000 м    10/0 средняя 
[As trans]
-9.2 -14.8 64 -9  1039.3  -1.1  736  308           
12 18.02.18 тихо ()   н/о    10/0 средняя 
[Ac As]
-13 -15 85 -13  1040.6  0.4  736  313    -9.2       
00 19.02.18 тихо ()   н/о  слаб. снег  10/0 средняя 
[As trans]
-20.6 -21.8 90 -21  1041.8  0.4  736  322  -21.2    0.0  74  равномерный
сухой снег
100% 
12 19.02.18 тихо ()   н/о  {ливн. осадки}  9/4 600 м кучево-дожд., средняя 
[Cb cap|Ac trans]
-9 -11.5 82 -9  1038.1  735  307    -7.5  0.0     
21 19.02.18 тихо ()   н/о    10/10 600 м кучево-дожд. 
[Cb cap]
-12 -12.6 95 -12  1037.9  -1.3  735  311           
12 20.02.18 тихо ()   н/о  слаб. снег  10/0 средняя 
[Ac As]
-5.9 -7 92 -6  1035  -1.2  734  303    -4.4  0.7     
12 21.02.18 280 (З) н/о  слаб. снег  10/0 средняя 
[As op]
-6.1 -7.2 92 -6  1027.2  -0.3  728  301    -3.5     
00 22.02.18 тихо ()   н/о  {снег}  10/0 средняя 
[As op]
-10.4 -11 95 -10  1023.6  -0.7  725  305  -10.4    0.6  81  равномерный
сухой снег
100% 
03 22.02.18 тихо ()   20000 м    9/0 средняя 
[Ac und]
-8.3 -8.9 95 -8  1022.4  -0.8  724  302           
06 22.02.18 320 (СЗ) 20000 м    9/0 верхняя 
[Cs]
-4.4 -8.7 72 -4  1019.6  -1.8  723  297           
09 22.02.18 тихо ()   10 км  осадки на расстоянии  10/0 верхняя 
[Cs]
-3.6 -8.4 69 -4  1018.8  -0.8  722  296           
12 22.02.18 тихо ()   н/о  слаб. снег  10/0 средняя 
[As op]
-5.2 -6.2 93 -5  1020  0.8  723  298    -3  0.0     
00 23.02.18 тихо ()   н/о  {снег}  8/8 1000 м 
[Sc]
-6.9 -9.4 82 -7  1024.6  1.7  726  301  -6.9    82  равномерный
мокрый или
старый снег
100% 
06 23.02.18 230 (ЮЗ) 20000 м    9/3 1000 м верхняя 
[Cu med, cong|Ci]
-2.4 -10.6 53 -3  1025.8  0.1  728  297           
09 23.02.18 250 (З) 20000 м    10/0 средняя 
[Ac As]
-4.7 -12.9 53 -4  1026  -0.4  727  299           
12 23.02.18 тихо ()   н/о    10/0 средняя 
[Ac As]
-6.6 -8.6 86 -7  1026.3  727  301    -2.4       
15 23.02.18 тихо ()   н/о    8/0 верхняя 
[Ci fib]
-11.3 -11.9 95 -11  1027  -0.4  727  307           
00 24.02.18 тихо ()   н/о  {снег}  10/0 средняя 
[As trans]
-12.6 -13.2 95 -13  1025.4  -0.4  726  308  -12.6    0.5  82  равномерный
сухой снег
100% 
03 24.02.18 200 (Ю) 20000 м    10/0 средняя 
[As op]
-8.2 -9.6 90 -8  1025.3  0.8  726  303           
Время (UTC), дата Ветер
(°,м/с) 
Видим.   Явления Облачность Т
(°С)
Тd
(°С)
f(%) Тe
(°С)
Pmin
(гПа)
dP
(гПа)
Po
(мм)
O2
(г/м3)
Тmin Tmax R s Состояние
почвы

Для получения пояснительной информации подведите курсор к названию столбца.

ПОГОДА Пономарёво - архив

Всё, что Вы хотите узнать о погоде Пономарёво - удобно и подробно!

Выберите нужную дату (начиная с 1 января 2015* года) и нажмите кнопку "Найти".
Будут отображены архивные сводки погоды по пункту Пономарёво, начиная с указанной даты.


Отображать данные в формате CSV (для использования в таблицах Excel)


Внимание! Наш архив погоды предназначен исключительно для личного некоммерческого использования в познавательных целях. Если Вам необходимы официальные справки о состоянии погоды (для производственных, юридических, коммерческих и т.п. целей), обращайтесь в органы Росгидромета.

*Примечание: данная дата относится к архиву по метеостанциям СССР (Россия, СНГ, Балтия).
Архив по метеостанциям Зарубежной Европы и Азии (кроме Китая) хранится 10 дней, по другим регионам земного шара (Китай, Африка, Америка, Австралия, Океания) - 1 день.

Пономарёво - район местоположения метеостанции


Название, широта, долгота, высота метеостанции:
Пономарёво 53.7°ш. 94.2°д. 445 м над ур. моря [Российская Федерация]

Дополнительная информация

В oтличие oт бoльшинства пoгoдных сайтoв мы публикуем пoдрoбную метеoинфoрмацию в детальнoм прoфессиoнальнoм фoрмате.

Характеристики температуры и влажнoсти вoздуха измеряются на высoте 2 м в тени вдали oт зданий и деревьев.
Скoрoсть ветра измеряется на высoте 10 м (на урoвне рoста челoвека скoрoсть ветра ниже в 1.5-2 раза). Если метеoстанция нахoдится в гoрoде или в лесу, тo скoрoсть ветра занижена на 2-4 м/с пo сравнению с oткрытым местoм. Скoрoсть ветра над акватoриями крупных рек и oзёр, а также на вершинах хoлмoв на 2-5 м/с выше, чем в oбычных услoвиях.
Атмoсфернoе давление в разных тoчках местнoсти мoжет значительнo oтличаться oт давления на метеoстанции, в зависимoсти oт услoвий рельефа (при пoдъёме на 10 м давление пoнижается примернo на 1 мм рт.ст.).